Погода в Макапе

Бразилия     0°01′12″N   51°04′38″W
темп.,
°C
ветер,
м/с
пор.,
м/с
влажн.,
%
обл.,
%
осадки,
мм/ч
давл.,
гПа
погр.,
м
4 июля, пн
пн400:00+25всв49906 3.5 1016386
03:00+25в48875 6.8 1013361
06:00+24в358925 1.6 1013238
09:00+25в23855 2.2 1014270
12:00+28всв35715 0.6 1014514
15:00+29св45675 0.7 1012492
18:00+27св46785 0.3 1012311
21:00+26всв57825 0.5 1014363
5 июля, вт
вт500:00+25всв46853 0.9 1014262
03:00+25всв35851 1.6 1012313
06:00+24всв23874 1.0 1013187
09:00+27всв24763 2.8 1014326
12:00+28всв44685 0.3 1013581
15:00+28св23685 0.4 1010305
18:00+27в34775 1.8 1011163
21:00+25в468218 2.4 1013277
6 июля, ср
ср600:00+25в478518 1.3 1014269
03:00+24вюв369069 2.7 1012240
06:00+23ююз1290100 3.1 1012119
09:00+25всв128365 3.3 1014243
12:00+26св237355 0.0 1013475
15:00+26св467922 0.6 1011378
18:00+26всв57846 1.8 1011371
21:00+25всв610855 3.8 1013430
7 июля, чт
чт700:00+25всв58856 3.6 1013453
03:00+25в36855 6.2 1011299
06:00+24в348758 1.8 1012246
09:00+26всв468381 2.9 1014453
12:00+28всв46734 0.0 1014517
15:00+29всв57675 0.5 1011620
18:00+27всв69825 1.2 1012550
21:00+26всв510878 2.7 1014497
8 июля, пт
пт800:00+25всв5108998 2.1 1015486
03:00+25в5108818 4.8 1013485
06:00+25в4887100 2.0 1014373
09:00+26св61083100 5.4 1015569
12:00+28всв687373 4.0 1015534
15:00+28всв6875100 5.6 1013525
18:00+26всв59856 3.4 1013481
21:00+26всв610834 4.1 1015580